FENGYUN 1C DEB, 38824

Orbit data source: Space-Track

FENGYUN 1C DEB, 38824 is space debris in SSO originally from a launch on Mon, 10 May 1999 UTC launched from the Taiyaun Space Center, China (TSC). Fengyun 1C debris stems from the Chinese weather satellite Fengyun-1C, which was intentionally destroyed by a Chinese anti-satellite missile in 2007. This event dramatically increased the amount of space debris, with thousands of trackable fragments posing hazards to satellites and human spaceflight. The Fengyun 1C debris cloud has become a focal point in discussions about space sustainability and the need for international regulations to prevent the creation of new debris.

Loading next visibility...
Identifier
38824, 1999-025EVQ
Orbit
SSO
Country
Flag of CNCN / PRC
Related business
Manufacturer
Unknown
Mission
Spacecraft
Bus & Motor
Unknown
Mass
Unknown
Launch date (UTC)
1999-05-10 (27 years ago)
Launch vehicle
Unknown
Launch site
Taiyaun Space Center, China (TSC)
Object type
Payload
Rocket body
Debris
Shape & HBR
Unknown shape, 0.1 m
Radar Cross Section
Medium (>0.1 m² and <1 m²)

Expand to show TLE details & history
Last TLE update: 2 days ago

TLE from 2 days ago
0 FENGYUN 1C DEB
1 38824U 99025EVQ 26252.37207425  .00003656  00000-0  17717-2 0  9992
2 38824  99.2970  42.5101 0095412 162.8866 197.5561 14.16715264729665
Epoch: 2026-09-09T08:55Z
TLE epoch observation values (Epoch: 2026-09-09T08:55:47.215Z)
Latitude
-0.00004°
Longitude
-79.86171°
Altitude
905.076 km
Speed
7.366 km/s
True Right ascension
02h 50m 02s
True Declination
0° 00' 00"
Sunlit
Object was in full shadow at epoch
Visualization orbit readout
Latitude
Unknown
Longitude
Unknown
Altitude
Unknown
Speed
Unknown
Apparent Right ascension
Unknown
Apparent Declination
Unknown
Sunlit
N/A
Visualization observer readout
Local Sidereal Time
10:05:54
Azimuth
Unknown
Elevation
Unknown
Doppler factor
Unknown
Orbital elements
Apogee altitude
902.484 km
Perigee altitude
764.865 km
Semi-major axis
7,211.812 km
Eccentricity
0.00954
Inclination
99.297°
RAAN
42.5101°
Arg. of periapsis
162.8866°
True anomaly
197.23002°
Mean anomaly
197.5561°
Eccentric anomaly
197.39269°
Mean motion
3.54386 °/min
Orbital period
101.58 mins
BSTAR
0.0017717
Loading maneuver chart data...
Computing Atmospheric mass density...

Documentation

Showing up to 5 results
|